sat.trackr.live / text

‹ back to catalog

STARLINK-5006

NORAD 55422 · 2023-014AH

PAYLOAD ACTIVE UNKNOWN

§ Identity

Operator
Country
US
Launch date
2023-01-31
Launch site
AFWTR
Launch vehicle
Mass (kg)
RCS (m²)

Purposes: comms

External: N2YO · Heavens-Above · Gunter

§ Orbital elements

Epoch: 2026-09-20T22:00:03.000096Z

Period
95.70 min
Inclination
70.0005°
Eccentricity
0.0002520
Mean motion
15.04745198 rev/d
Perigee alt
550.5 km
Apogee alt
554.0 km
Semi-major
6,930.4 km
B*
6.2688e-3
RAAN
312.0162°
Arg perigee
241.5745°
Mean anomaly
357.7145°
Rev number
566

§ Raw data

STARLINK-50061 55422U 23014AH  26263.91670139  .00089563  00000+0  62688-2 0  99952 55422  70.0005 312.0162 0002520 241.5745 357.7145 15.04745198  5667

JSON: /api/v1/satellites/55422 · /tle

For live sub-satellite position, see the globe view (requires WebGL).

§ Visibility from observer

Set your observer location to see the next 7 days of passes ≥ 10°. The values pass through the URL so the page stays shareable.

No JS? Fill the form by hand. The geolocation button needs JavaScript.